Bradford, PA

3:43 AM EST on December 10, 2019 (GMT -0500)
Bradford Regional

Weather History for KBFD - August, 2019

Change the Weather History Date:

Friday, August 23, 2019

  Actual Average Record
Temperature  
Mean Temperature 59 °F 63 °F  
Max Temperature 69 °F 75 °F 85 °F (1968)
Min Temperature 49 °F 52 °F 37 °F (1973)
Degree Days  
Heating Degree Days 6 1  
Month to date heating degree days 20 15  
Since 1 June heating degree days 154 224  
Since 1 July heating degree days 32 79  
Cooling Degree Days 0 1  
Month to date cooling degree days 63 44  
Year to date cooling degree days 253 168  
Since 1 June cooling degree days 246 158  
Growing Degree Days 9 (Base 50)    
Moisture  
Dew Point 51 °F    
Average Humidity 75    
Maximum Humidity 100    
Minimum Humidity 49    
Precipitation  
Precipitation 0.00 in 0.13 in 1.04 in (1990)
Month to date precipitation 4.23 3.09  
Year to date precipitation 32.20 28.93  
Sea Level Pressure  
Sea Level Pressure 30.11 in    
Wind  
Wind Speed 4 mph (NNW)    
Max Wind Speed 12 mph    
Max Gust Speed 15 mph    
Visibility 8 miles    
Events Fog    
T = Trace of Precipitation, MM = Missing Value Source: NWS Daily Summary

Daily Weather History Graph

Daily Weather History Graph

Search for Another Location

Airport or City:

Astronomy

Aug. 23, 2019 Rise Set
Actual Time 6:30 AM EDT 8:02 PM EDT
Civil Twilight 6:01 AM EDT 8:32 PM EDT
Nautical Twilight 5:26 AM EDT 9:07 PM EDT
Astronomical Twilight 4:48 AM EDT 9:44 PM EDT
Moon No Moon Rise 2:12 PM EDT (8/23)
Length of Visible Light 14h 30m
Length of Day
13h 31m
Waning Gibbous, 50% of the Moon is Illuminated
Aug 23
Waning Gibbous
Aug 30
New
Sep 5
First Quarter
Sep 14
Full
Sep 21
Last Quarter

Hourly Weather History & Observations

Time (EDT) Temp. Dew Point Humidity Pressure Visibility Wind Dir Wind Speed Gust Speed Precip Events Conditions
12:03 AM 52.0 °F 51.1 °F 97% 30.06 in 10.0 mi Calm Calm - N/A   Clear
12:53 AM 51.1 °F 51.1 °F 100% 30.05 in 4.0 mi Calm Calm - N/A   Clear
1:53 AM 51.1 °F 50.0 °F 96% 30.05 in 10.0 mi Calm Calm - N/A   Clear
2:53 AM 52.0 °F 50.0 °F 93% 30.03 in 10.0 mi Calm Calm - N/A   Clear
3:53 AM 50.0 °F 48.9 °F 96% 30.04 in 10.0 mi Calm Calm - N/A   Clear
4:53 AM 51.1 °F 50.0 °F 96% 30.05 in 10.0 mi NNW 3.5 mph - N/A   Clear
5:35 AM 52.0 °F 51.1 °F 97% 30.07 in 10.0 mi North 3.5 mph - N/A   Scattered Clouds
5:53 AM 52.0 °F 51.1 °F 97% 30.06 in 4.0 mi North 4.6 mph - N/A   Mostly Cloudy
6:06 AM 52.0 °F 51.1 °F 97% 30.08 in 6.0 mi NNW 3.5 mph - N/A   Scattered Clouds
6:53 AM 51.1 °F 51.1 °F 100% 30.08 in 9.0 mi NW 3.5 mph - N/A   Clear
7:39 AM 53.1 °F 52.0 °F 96% 30.10 in 2.5 mi NW 3.5 mph - N/A   Scattered Clouds
7:42 AM 52.0 °F 52.0 °F 100% 30.11 in 0.8 mi WNW 3.5 mph - N/A   Mist
7:53 AM 52.0 °F 52.0 °F 100% 30.10 in 0.5 mi NW 3.5 mph - N/A Fog Fog
7:59 AM 52.0 °F 52.0 °F 100% 30.11 in 2.0 mi Calm Calm - N/A   Mostly Cloudy
8:07 AM 54.0 °F 53.1 °F 97% 30.11 in 8.0 mi North 4.6 mph - N/A   Mostly Cloudy
8:14 AM 55.0 °F 54.0 °F 96% 30.11 in 10.0 mi North 3.5 mph - N/A   Scattered Clouds
8:53 AM 57.0 °F 55.0 °F 93% 30.11 in 10.0 mi Calm Calm - N/A   Partly Cloudy
9:53 AM 63.0 °F 54.0 °F 72% 30.11 in 10.0 mi Variable 4.6 mph - N/A   Clear
10:53 AM - - N/A% 30.13 in - NNW 9.2 mph - N/A   Unknown
11:53 AM - - N/A% 30.13 in - North - - N/A   Unknown
12:53 PM 66.0 °F 48.0 °F 52% 30.12 in 10.0 mi Variable 5.8 mph - N/A   Clear
1:53 PM 66.0 °F 48.9 °F 54% 30.12 in 10.0 mi North 8.1 mph - N/A   Scattered Clouds
2:53 PM 66.0 °F 51.1 °F 59% 30.12 in 10.0 mi NE 5.8 mph - N/A   Mostly Cloudy
4:53 PM 68.0 °F 48.9 °F 50% 30.11 in 10.0 mi North 9.2 mph - N/A   Mostly Cloudy
5:53 PM 64.9 °F 51.1 °F 61% 30.12 in 10.0 mi North 5.8 mph - N/A   Overcast
6:53 PM 66.0 °F 51.1 °F 59% 30.12 in 10.0 mi NNW 8.1 mph - N/A   Scattered Clouds
7:53 PM 62.1 °F 50.0 °F 65% 30.14 in 10.0 mi NNW 6.9 mph - N/A   Mostly Cloudy
8:53 PM 59.0 °F 48.9 °F 69% 30.15 in 10.0 mi Calm Calm - N/A   Scattered Clouds
9:53 PM 55.0 °F 48.9 °F 80% 30.17 in 10.0 mi NNE 3.5 mph - N/A   Partly Cloudy
10:53 PM 51.1 °F 46.9 °F 86% 30.19 in 10.0 mi Calm Calm - N/A   Clear
11:53 PM 51.1 °F 46.9 °F 86% 30.21 in 10.0 mi NNW 3.5 mph - N/A   Scattered Clouds